Location: Pedimozza
(42.0500°N, 9.3500°E)
Time: 11:56:48
(UTC+00:00)

OAO 2 Rocket - Pass Details

Date: 19 August 2019
Orbit: 677 x 746 km, 35.0° (Epoch: 22 September)

Event Time Altitude Azimuth Distance (km) Brightness Sun altitude
Rises 20:07:46 0° 262° (W) 3,125 7.3 -18.8°
Reaches altitude 10° 20:10:24 10° 253° (WSW) 2,192 6.3 -19.2°
Maximum altitude 20:15:00 34° 190° (S) 1,160 4.2 -19.9°
Enters shadow 20:15:37 32° 175° (S) 1,184 4.1 -20.0°
